Wind_Speed
20 19 19 20 23 23 22 23 24 24 24 24 23 22 22 23 22 21 21 20 20 19 19 19 19 19 19 20 19 19 19 19 19 20 20 21 22 22 22 22 23 24 25
23 23 24 23 22 22 23 24 23 23 23 23 23 22 21 22 21 21 20 19 19 19 19 18 18 19 20 19 19 19 20 20 20 21 21 21 22 22 22 23 23 23 24
24 24 23 22 23 23 23 23 22 22 22 21 21 20 20 21 20 20 20 19 19 20 20 19 19 19 19 18 19 20 20 20 20 21 22 22 22 22 23 23 22 22 23
25 23 23 23 23 23 24 24 24 23 22 21 21 21 21 20 20 20 20 20 20 20 20 20 20 20 19 19 19 20 20 21 21 22 23 23 23 23 23 23 23 24 24
23 22 22 23 23 23 23 23 23 22 22 21 21 21 21 20 20 20 20 20 20 20 19 19 19 19 19 19 20 20 21 21 22 23 24 24 24 23 23 23 23 24 24
20 20 20 20 21 22 22 22 23 22 21 21 21 20 20 20 19 20 19 19 19 18 18 18 18 18 19 19 20 20 21 22 23 23 24 25 24 24 24 24 24 25 25
19 19 19 20 21 21 20 21 21 21 20 20 20 20 19 19 19 18 18 18 18 17 17 18 18 18 19 19 20 21 22 23 23 24 24 25 24 24 25 25 24 25 25
19 20 19 20 21 21 20 21 20 20 20 20 19 19 18 18 17 17 16 16 15 16 17 18 18 18 19 20 20 21 22 23 23 24 23 24 23 23 25 25 25 25 25
19 19 19 19 20 20 20 20 20 19 19 19 18 18 18 17 15 15 14 14 15 15 16 17 18 19 20 21 21 22 23 23 23 23 22 22 23 23 24 24 24 25 24
17 18 19 19 19 19 19 20 19 19 19 18 17 16 15 15 14 13 13 14 15 15 16 16 17 19 20 21 21 21 22 22 22 22 21 22 22 22 23 23 23 24 24
18 18 18 19 19 19 19 19 19 18 18 18 16 15 14 13 13 12 13 13 14 14 15 15 17 18 18 19 19 20 20 20 20 20 20 21 21 22 22 21 21 22 22
19 19 18 18 19 19 19 18 18 17 17 17 15 14 14 14 13 13 12 12 13 13 14 15 16 17 17 17 18 18 19 19 20 20 20 21 21 21 21 20 21 21 21
19 19 19 18 18 18 18 18 18 16 16 15 15 14 14 13 13 12 12 12 12 13 14 15 15 15 15 16 17 17 17 18 19 19 20 20 20 20 20 20 20 20 21
18 18 18 17 17 17 18 17 17 16 15 15 14 14 13 13 13 12 11 11 12 13 15 15 14 15 15 15 16 16 16 17 18 18 19 20 20 20 20 19 19 19 20
16 16 16 16 15 16 16 17 16 15 15 15 14 14 14 13 13 12 12 12 13 14 15 15 15 15 16 15 14 15 16 17 18 19 20 20 20 20 19 18 18 19 19
16 15 15 15 15 16 16 16 16 15 15 15 14 13 13 13 13 12 12 12 13 15 15 15 15 16 16 15 15 16 16 18 19 20 20 20 20 20 19 18 18 18 19
15 15 15 15 15 16 16 16 16 15 15 15 14 13 13 13 13 12 12 13 14 14 14 14 15 15 15 15 15 16 18 19 20 20 21 20 19 19 18 18 18 18 18
15 16 15 15 16 16 16 16 15 15 16 15 14 13 13 12 13 13 13 13 13 14 14 15 15 15 15 15 16 18 19 19 20 21 21 21 20 19 19 18 19 18 18
16 16 16 16 16 16 16 15 15 15 16 15 14 13 13 12 13 13 13 13 14 14 14 15 15 15 16 16 17 18 19 20 21 21 21 21 22 21 20 20 20 19 19
16 16 16 16 16 16 16 15 15 16 15 14 13 13 13 13 14 14 13 13 14 14 15 15 15 16 16 17 18 19 20 21 21 21 22 22 22 21 21 20 20 19 19
17 17 16 16 16 16 16 15 15 15 14 13 13 13 12 12 13 13 14 14 14 14 14 15 15 16 16 17 18 19 20 21 21 22 22 22 22 21 21 21 20 20 20
18 18 17 16 16 16 15 15 15 14 14 13 13 13 13 13 13 13 13 14 14 14 14 15 16 16 17 18 18 19 20 21 22 22 23 22 22 22 22 22 22 21 21
19 18 17 16 16 15 15 15 14 13 13 13 13 13 13 13 12 13 13 14 15 15 14 15 16 16 17 18 19 20 20 21 22 23 23 23 22 22 23 23 23 23 22
19 18 17 17 16 16 15 15 14 13 13 13 13 13 13 13 13 13 13 14 14 14 15 16 17 18 18 19 19 20 21 22 22 23 23 23 23 23 24 24 24 24 23
19 18 17 17 16 16 15 14 13 13 13 13 13 13 13 13 13 14 13 14 15 15 16 16 17 18 18 19 20 21 22 22 22 23 23 24 24 24 24 24 25 25 25
18 18 18 18 17 16 15 14 13 14 14 14 13 13 13 13 13 13 14 14 15 16 16 16 17 18 19 19 20 21 21 22 22 23 24 24 25 25 25 25 26 25 25
Wind_Direction
309 307 306 303 304 305 304 304 305 303 300 297 294 292 293 293 292 291 289 288 286 284 285 285 285 284 283 284 284 286 285 283 282 281 283 283 282 280 277 274 273 270 266
309 308 307 305 305 306 306 307 307 304 300 299 296 294 293 291 290 287 286 285 286 287 287 286 288 287 285 285 284 288 287 284 282 282 282 282 282 282 279 275 274 271 267
309 313 311 308 307 306 307 309 308 306 304 301 298 298 295 291 288 287 286 283 285 285 285 287 288 288 287 286 286 288 288 286 284 284 283 282 280 279 278 276 274 272 269
312 312 312 310 310 308 309 311 309 308 306 303 300 299 295 290 289 287 285 284 285 284 282 285 286 287 286 287 288 289 289 287 285 284 284 285 283 279 275 273 273 272 271
315 314 313 313 310 308 310 312 311 309 308 306 304 300 297 295 293 290 286 285 286 286 283 285 286 284 284 286 287 288 288 288 286 284 284 285 285 281 276 273 272 271 270
319 317 314 315 316 314 314 315 315 312 310 309 308 304 301 300 296 293 290 288 287 285 284 287 286 286 287 289 289 289 289 289 288 287 285 285 284 281 278 275 273 271 271
319 317 317 321 323 324 322 319 318 315 313 312 310 306 303 301 299 297 294 292 289 285 286 287 288 290 291 291 290 291 291 291 291 290 287 284 281 280 277 276 275 275 274
319 319 323 325 326 327 326 324 322 321 318 315 310 307 305 305 301 301 300 298 296 291 289 288 289 289 290 292 294 295 295 296 294 291 288 285 281 279 278 277 276 277 276
324 324 324 326 327 328 327 327 325 323 321 319 316 312 309 308 305 304 303 301 298 296 295 294 292 292 293 295 297 297 297 298 296 293 290 287 284 282 280 279 278 278 277
325 322 324 325 325 327 329 329 328 326 326 325 324 322 319 315 313 308 306 305 302 300 298 298 297 296 297 298 300 301 300 299 298 296 293 290 287 285 284 281 280 280 277
325 323 325 326 326 327 328 328 330 330 331 330 330 330 329 325 319 317 314 313 312 308 305 304 302 301 303 303 304 305 303 303 302 302 299 295 292 288 287 284 282 282 281
327 326 328 326 327 329 328 328 332 333 332 332 333 331 331 330 327 325 320 320 319 318 317 314 310 308 307 306 306 306 307 307 306 306 303 300 298 293 290 287 284 284 284
325 325 327 326 327 330 331 331 333 334 335 336 336 333 332 330 331 331 329 328 326 326 324 322 319 316 313 312 311 310 312 313 312 312 310 308 303 299 295 292 289 287 284
325 325 325 326 327 329 333 334 334 334 336 337 336 337 337 337 336 332 332 333 333 331 329 327 325 323 320 317 314 313 317 318 318 319 318 315 310 305 299 294 291 289 288
324 324 325 325 328 330 333 336 334 335 336 336 336 338 339 337 336 335 334 335 334 334 333 332 331 329 326 325 322 322 324 326 326 324 323 320 316 313 307 300 296 293 294
325 325 325 324 328 331 332 332 333 335 336 337 337 339 339 338 339 339 338 336 336 335 335 334 333 333 333 333 329 329 329 330 329 329 327 324 320 316 311 306 302 298 297
325 325 325 324 324 327 331 331 329 333 335 336 336 335 334 338 341 342 340 336 336 337 339 339 341 339 335 335 335 334 332 331 331 330 328 326 324 320 316 310 306 303 301
323 324 321 320 323 326 328 329 326 329 331 331 330 330 331 333 338 338 337 336 336 338 340 340 341 340 338 338 338 337 336 334 332 331 330 328 325 320 318 312 307 303 301
319 319 318 318 321 324 325 325 326 328 330 329 326 326 328 330 335 336 335 337 337 338 341 343 341 340 339 338 339 339 338 336 334 334 333 331 328 325 322 317 310 304 302
314 316 317 317 319 321 322 321 324 327 327 327 325 322 323 327 331 334 336 339 340 342 343 343 342 342 340 340 339 340 340 339 338 338 338 337 335 333 330 326 321 313 308
310 312 314 314 316 317 319 319 320 325 326 327 326 324 326 328 333 336 340 341 341 341 341 342 342 342 343 342 340 339 340 340 341 341 339 338 336 335 334 331 327 321 316
306 307 310 312 314 315 315 316 318 321 322 323 324 326 328 329 332 336 340 341 340 339 339 340 340 341 341 341 340 339 339 340 340 340 339 338 337 337 336 334 331 327 324
306 306 306 308 310 312 312 313 315 317 317 319 320 324 327 329 330 333 336 337 336 336 336 337 338 338 338 339 340 340 339 339 340 339 339 339 338 338 338 336 334 332 328
303 302 302 304 306 308 309 309 310 312 314 318 319 321 325 325 325 326 330 332 334 336 336 336 337 338 338 338 339 340 340 340 341 341 340 339 338 337 337 336 335 333 330
299 300 300 301 302 304 305 306 305 308 310 314 316 318 320 322 322 323 327 330 334 336 335 334 336 337 338 338 338 340 342 343 343 343 342 341 340 338 337 336 335 335 333
295 295 295 297 298 299 299 299 301 304 305 307 310 314 317 318 319 323 327 328 330 333 333 333 334 337 338 340 341 343 343 344 344 344 344 343 342 341 339 337 336 336 335
Height
5838 5835 5832 5829 5827 5824 5821 5818 5814 5811 5808 5806 5803 5801 5799 5796 5794 5792 5790 5788 5786 5785 5784 5783 5782 5780 5779 5778 5777 5776 5775 5774 5773 5772 5771 5770 5769 5768 5766 5765 5764 5763 5762
5833 5831 5827 5825 5822 5819 5815 5812 5808 5804 5801 5799 5796 5793 5792 5790 5788 5786 5784 5782 5781 5780 5778 5776 5776 5775 5773 5771 5770 5770 5769 5768 5767 5766 5765 5764 5763 5761 5759 5758 5757 5756 5755
5829 5825 5823 5820 5816 5813 5809 5806 5803 5799 5795 5792 5790 5787 5785 5784 5782 5780 5778 5777 5776 5775 5773 5772 5771 5769 5767 5766 5765 5764 5763 5762 5761 5760 5759 5757 5757 5755 5753 5751 5750 5749 5748
5823 5820 5818 5814 5811 5807 5804 5800 5797 5794 5790 5787 5785 5782 5780 5778 5776 5774 5772 5771 5770 5768 5767 5766 5765 5764 5762 5761 5760 5758 5757 5756 5755 5753 5751 5750 5748 5747 5746 5745 5743 5742 5741
5819 5816 5813 5809 5806 5802 5798 5795 5791 5788 5785 5782 5779 5777 5774 5772 5770 5768 5767 5765 5764 5762 5761 5760 5759 5758 5757 5755 5754 5752 5751 5749 5748 5746 5744 5742 5740 5739 5738 5737 5736 5734 5733
5814 5811 5808 5805 5801 5796 5793 5790 5786 5783 5781 5777 5774 5771 5769 5766 5765 5762 5760 5759 5758 5757 5755 5754 5753 5752 5751 5749 5747 5746 5744 5742 5740 5738 5736 5734 5732 5731 5730 5729 5728 5727 5725
5810 5806 5803 5800 5796 5793 5789 5786 5782 5779 5776 5773 5769 5766 5764 5761 5759 5757 5755 5753 5752 5751 5750 5748 5747 5746 5745 5743 5741 5739 5737 5734 5732 5730 5728 5726 5724 5722 5721 5720 5719 5718 5717
5806 5802 5799 5796 5793 5789 5786 5783 5779 5775 5771 5768 5765 5761 5759 5757 5755 5752 5750 5748 5747 5746 5744 5743 5741 5740 5739 5737 5734 5732 5729 5727 5725 5722 5720 5718 5716 5714 5712 5711 5711 5709 5708
5803 5799 5796 5793 5789 5786 5783 5779 5775 5772 5768 5764 5761 5758 5755 5752 5750 5748 5746 5744 5743 5741 5739 5738 5736 5734 5732 5730 5728 5725 5723 5720 5717 5714 5712 5710 5708 5706 5704 5703 5702 5701 5699
5800 5796 5793 5790 5787 5783 5780 5776 5772 5768 5765 5761 5758 5755 5752 5749 5747 5745 5743 5741 5738 5736 5734 5733 5731 5728 5726 5724 5721 5718 5716 5713 5710 5708 5705 5703 5701 5699 5697 5695 5693 5692 5691
5796 5793 5790 5787 5783 5780 5776 5773 5769 5765 5762 5758 5755 5752 5750 5747 5744 5742 5739 5737 5735 5732 5730 5728 5726 5723 5720 5718 5715 5713 5710 5707 5704 5701 5699 5696 5694 5692 5689 5687 5686 5684 5682
5794 5790 5787 5784 5780 5777 5773 5770 5766 5762 5759 5756 5753 5750 5747 5745 5742 5739 5737 5734 5732 5729 5727 5724 5721 5718 5716 5713 5710 5707 5705 5702 5699 5696 5693 5690 5687 5685 5683 5681 5679 5677 5675
5791 5788 5784 5781 5778 5774 5770 5766 5763 5760 5757 5754 5751 5748 5745 5743 5740 5737 5735 5732 5729 5727 5724 5720 5717 5714 5711 5708 5705 5703 5700 5697 5694 5691 5687 5684 5681 5678 5676 5674 5672 5670 5668
5788 5785 5782 5779 5775 5772 5768 5764 5761 5758 5756 5753 5750 5747 5744 5741 5738 5735 5733 5730 5727 5724 5721 5718 5714 5711 5708 5705 5702 5699 5696 5693 5689 5686 5682 5679 5675 5672 5670 5668 5666 5664 5662
5785 5782 5779 5777 5773 5770 5766 5763 5760 5757 5754 5751 5748 5745 5742 5739 5737 5734 5731 5728 5725 5722 5718 5715 5712 5708 5705 5701 5698 5695 5692 5689 5685 5681 5678 5674 5670 5667 5664 5662 5660 5658 5655
5782 5779 5777 5774 5771 5768 5765 5762 5758 5755 5752 5749 5746 5743 5740 5737 5735 5732 5729 5726 5723 5720 5716 5713 5709 5705 5702 5699 5695 5692 5689 5685 5681 5677 5674 5670 5666 5662 5659 5656 5654 5652 5649
5779 5777 5774 5771 5769 5766 5763 5759 5756 5753 5750 5747 5744 5742 5739 5736 5733 5730 5727 5724 5721 5718 5714 5711 5707 5703 5700 5696 5693 5689 5686 5682 5678 5674 5670 5666 5661 5657 5654 5651 5648 5646 5643
5777 5774 5771 5769 5766 5763 5760 5757 5754 5752 5749 5745 5743 5740 5737 5735 5731 5729 5726 5722 5719 5715 5712 5708 5704 5701 5697 5694 5691 5687 5682 5678 5674 5670 5666 5661 5657 5653 5649 5646 5643 5640 5637
5774 5772 5769 5766 5763 5760 5757 5754 5752 5749 5746 5743 5741 5738 5735 5732 5730 5727 5724 5720 5717 5713 5710 5706 5703 5699 5695 5691 5688 5684 5679 5675 5671 5667 5662 5657 5653 5648 5644 5641 5638 5635 5632
5771 5769 5766 5763 5761 5758 5755 5752 5749 5747 5744 5741 5738 5736 5733 5731 5728 5725 5722 5718 5715 5711 5708 5704 5701 5697 5693 5689 5685 5681 5677 5672 5668 5663 5658 5654 5649 5644 5640 5636 5632 5629 5626
5767 5765 5763 5760 5758 5755 5752 5750 5747 5744 5741 5739 5736 5733 5731 5729 5726 5723 5720 5716 5713 5709 5706 5703 5699 5695 5691 5687 5683 5679 5674 5669 5665 5660 5655 5650 5645 5640 5636 5631 5627 5623 5620
5763 5761 5759 5757 5754 5752 5749 5747 5744 5742 5739 5736 5734 5731 5729 5726 5723 5720 5717 5714 5711 5707 5704 5700 5697 5693 5689 5685 5680 5676 5671 5666 5662 5657 5652 5647 5642 5637 5632 5627 5623 5618 5614
5758 5756 5755 5753 5751 5749 5746 5744 5741 5739 5736 5734 5731 5729 5726 5724 5721 5718 5715 5712 5708 5705 5702 5698 5694 5691 5687 5682 5678 5673 5668 5663 5659 5653 5648 5643 5638 5633 5628 5623 5618 5614 5609
5754 5752 5750 5749 5747 5745 5743 5740 5738 5736 5734 5731 5729 5726 5724 5721 5719 5716 5713 5710 5706 5702 5699 5696 5692 5688 5684 5680 5675 5671 5666 5661 5655 5650 5645 5640 5635 5630 5625 5620 5614 5610 5605
5749 5747 5746 5745 5743 5741 5739 5737 5735 5733 5731 5728 5726 5724 5721 5719 5716 5713 5710 5707 5704 5700 5697 5693 5690 5686 5682 5677 5673 5668 5663 5658 5653 5647 5642 5637 5632 5626 5621 5616 5611 5605 5600
5744 5742 5741 5740 5738 5736 5735 5733 5731 5729 5728 5725 5723 5721 5719 5716 5714 5711 5708 5704 5701 5698 5694 5691 5687 5683 5679 5675 5670 5666 5661 5655 5650 5645 5639 5634 5628 5623 5617 5612 5607 5602 5596